Theta_e
303 312 315 318 320 321 322 323 323 324 325 326 326 325 326 326 325 325 327 329 328 327 328 329 329 328 328 329 328 326 327 328 330 330 329 327 326 326 325 325 324 324 324 324 323 321 322 323 324 322 320 319 318 318 318 317 317 316 316 314 312 312 313 313 312 309 308 309 309 307 308 309 309 309 310 310 309 310 309 309 309 309 309 309 310
302 306 310 313 318 317 318 321 319 322 323 324 325 326 326 325 326 326 326 327 328 327 327 328 328 328 328 327 324 323 325 326 327 328 329 329 327 327 326 325 325 324 323 324 325 326 325 324 323 322 321 321 319 319 320 317 318 317 317 315 313 312 313 314 313 310 308 307 308 308 309 310 311 310 309 309 309 308 308 308 308 308 308 308 308
300 304 306 312 314 316 316 318 320 323 322 324 325 324 324 324 325 326 326 326 326 326 326 327 325 325 326 321 325 320 322 326 327 328 329 328 328 327 327 327 326 326 326 326 327 328 326 324 322 322 321 321 319 318 317 316 317 316 317 317 315 314 314 313 312 312 311 306 308 307 307 307 308 304 306 307 307 307 307 307 308 307 307 307 307
299 301 303 303 305 308 307 312 316 316 317 318 321 323 325 324 324 325 326 326 325 325 323 325 325 324 325 323 324 325 322 321 324 322 324 324 326 327 327 327 327 328 328 328 328 328 327 326 326 323 323 320 320 321 320 320 317 316 316 316 316 315 312 312 312 310 311 309 307 306 306 306 305 304 302 308 307 308 307 307 306 306 306 306 306
299 298 298 299 300 302 303 303 301 307 311 316 317 322 326 324 324 325 326 326 325 323 323 323 322 320 322 318 319 319 318 318 319 319 320 322 323 323 326 326 327 327 326 327 326 328 327 326 325 325 324 322 322 321 320 320 319 317 318 317 316 316 315 313 312 311 310 312 312 308 306 302 304 307 310 312 313 305 304 305 305 305 305 305 305
299 299 299 299 300 299 299 299 300 300 301 304 309 317 320 322 322 323 324 325 325 323 323 323 322 322 319 319 318 317 315 314 315 316 317 319 321 320 325 325 326 325 326 327 328 326 327 328 327 327 325 324 322 322 321 320 320 319 319 318 317 316 316 314 312 311 312 311 312 314 313 310 309 310 308 305 307 309 311 308 307 306 305 304 304
299 299 298 298 298 298 298 298 298 299 299 300 304 310 314 319 320 321 322 323 324 323 322 322 321 321 321 320 317 317 316 310 310 312 314 313 315 318 318 320 322 323 322 323 325 325 326 326 327 326 325 325 323 323 322 322 321 320 318 318 319 315 314 313 313 314 311 310 310 311 311 311 312 307 305 307 303 307 310 310 308 308 308 306 304
299 299 300 299 299 300 300 299 298 299 298 301 303 305 311 315 317 318 319 320 322 323 321 322 320 317 317 316 316 314 316 315 314 314 314 317 317 316 317 318 319 319 319 320 322 322 322 323 324 323 323 324 322 322 322 322 321 321 318 317 316 315 315 314 314 314 312 312 309 308 308 308 308 308 307 305 303 300 304 309 310 310 310 311 311
300 300 300 299 299 299 299 299 299 299 299 300 301 303 306 308 313 313 315 317 316 320 320 317 319 317 315 315 313 312 315 314 315 316 318 317 314 312 314 315 318 318 319 320 320 320 319 321 321 321 320 321 317 321 321 321 321 320 319 318 317 317 316 317 316 315 314 313 310 308 307 307 307 307 306 305 302 302 304 306 307 309 309 309 309
298 299 299 298 298 298 298 299 300 300 299 298 300 302 304 306 310 312 312 314 315 315 317 313 313 314 313 313 314 313 315 315 315 314 314 313 313 311 311 314 314 314 316 315 315 315 315 314 316 317 318 319 317 320 319 319 319 319 320 319 319 318 317 315 314 315 314 314 313 312 309 304 304 305 304 304 304 304 301 303 305 305 305 309 310
297 297 297 298 297 299 299 301 301 301 301 301 301 302 303 306 308 310 308 309 311 313 314 312 311 313 313 312 313 313 313 314 312 313 310 309 310 308 308 309 310 311 311 311 309 310 311 311 312 313 314 313 313 314 315 316 316 316 317 317 317 317 316 316 314 313 313 313 313 312 311 312 310 307 308 307 303 300 303 305 308 308 308 308 310
296 297 297 297 298 298 299 301 301 301 303 302 301 303 304 306 309 309 307 307 307 310 312 311 312 311 311 312 313 313 314 314 312 311 309 308 307 306 304 305 305 306 306 306 308 308 308 308 310 311 310 311 313 315 316 315 314 313 313 312 312 313 314 313 314 314 314 314 313 313 313 312 312 312 312 311 310 308 307 305 306 308 308 309 311
297 296 297 297 298 298 299 299 300 302 304 303 304 305 305 307 309 310 308 307 308 309 311 311 311 310 311 312 313 314 314 313 312 309 305 305 304 304 303 302 301 304 304 305 302 303 304 305 305 305 306 306 305 307 309 312 313 312 311 310 310 311 312 311 310 311 312 313 313 314 314 312 312 312 312 311 311 311 309 306 308 309 305 307 310
296 297 296 296 297 297 298 299 300 301 302 304 304 305 306 308 309 311 310 308 309 311 311 311 311 312 313 314 314 314 312 310 308 308 306 304 303 303 302 302 302 300 302 302 301 302 303 302 302 302 301 302 303 304 306 307 309 311 312 312 311 311 310 307 306 306 308 310 311 310 310 311 311 312 312 311 310 309 307 306 305 306 307 305 307
295 295 297 297 297 297 298 298 297 298 300 302 302 303 307 309 311 312 312 310 311 311 313 312 312 314 314 314 313 312 310 306 302 304 303 303 301 302 302 302 301 300 301 299 301 301 300 301 301 301 302 302 302 302 303 303 303 305 305 306 307 307 307 306 304 305 307 307 307 308 308 308 309 310 310 309 310 309 308 307 304 300 301 302 301
295 295 295 295 296 296 297 297 296 296 297 299 300 302 306 309 310 311 311 311 311 311 311 311 310 309 307 305 303 302 302 302 302 302 301 301 301 301 300 299 300 299 299 299 298 298 298 299 299 299 299 300 300 300 300 300 299 300 299 300 300 303 302 300 300 302 302 303 303 304 304 304 306 306 306 306 306 306 305 306 305 302 298 294 298
294 295 295 295 294 294 295 295 295 296 297 297 298 300 302 303 305 304 304 305 305 305 305 304 303 303 301 300 301 301 301 300 300 299 299 299 298 298 298 297 297 297 296 296 296 295 296 296 297 297 297 297 298 298 298 297 297 297 297 296 298 297 296 295 296 298 297 298 299 300 301 301 301 302 302 303 304 305 305 305 305 302 301 297 295
294 294 293 294 294 294 294 294 294 295 295 296 297 296 298 299 300 299 299 300 300 300 300 300 299 299 298 298 298 299 299 298 298 297 297 296 296 296 295 296 295 295 295 295 294 294 294 293 294 294 294 295 295 295 295 295 295 294 294 293 293 293 294 293 293 293 296 296 296 297 297 296 297 297 298 300 300 301 302 303 304 305 304 299 297
294 294 294 294 294 294 295 294 294 294 295 295 296 297 297 297 297 298 298 298 298 298 297 297 297 298 297 297 296 296 296 296 296 295 295 295 294 294 294 293 294 293 294 293 292 291 290 290 290 290 291 291 291 292 291 292 290 291 290 289 290 291 290 290 291 291 294 294 293 293 293 293 294 295 296 296 296 296 300 301 302 302 302 302 300
294 294 294 294 293 294 294 295 295 295 295 295 295 296 296 296 297 297 296 296 296 296 296 296 295 296 295 295 295 295 295 295 294 294 294 293 292 293 292 293 292 291 291 289 288 288 288 289 289 290 289 289 289 289 288 288 288 288 288 289 289 289 290 289 290 290 291 291 290 291 291 291 291 289 292 292 293 293 295 297 299 300 300 299 297
294 294 294 293 293 293 293 293 294 293 293 295 296 296 296 296 296 296 296 295 295 295 295 294 294 294 294 294 294 294 293 293 293 293 293 292 292 291 291 289 288 289 286 288 287 287 286 286 286 287 286 287 287 289 289 289 288 288 288 287 289 288 288 288 286 289 288 287 287 289 291 291 289 289 290 291 291 292 292 294 297 298 297 298 298
294 293 293 293 293 293 293 293 292 294 294 294 295 295 295 295 295 295 295 295 294 294 294 294 294 294 293 293 292 292 292 292 292 291 290 290 289 289 286 287 288 285 285 286 286 286 286 285 285 286 286 286 287 289 287 288 288 288 288 290 286 287 287 287 286 288 288 289 287 288 290 290 288 289 289 290 290 290 289 291 293 294 294 295 297
294 293 293 293 293 293 293 293 294 294 294 294 293 294 294 293 293 293 294 293 294 294 294 293 293 292 291 291 290 290 289 289 289 289 288 288 287 286 285 287 286 285 285 286 286 286 285 285 286 286 287 287 287 286 286 286 287 285 286 287 285 285 286 286 287 288 288 287 287 287 288 288 288 287 287 288 288 288 288 289 290 292 292 292 294
293 293 293 293 293 291 293 293 294 294 293 293 293 293 293 292 292 292 292 292 292 292 292 292 291 290 289 289 289 288 288 288 288 287 287 285 285 285 285 285 284 285 287 286 285 286 286 286 286 286 286 286 286 286 286 285 285 285 286 287 286 284 285 285 286 287 287 286 287 287 287 287 287 287 287 287 287 286 287 287 288 289 290 291 292
293 293 293 293 292 292 294 294 294 293 292 292 292 292 291 291 290 291 291 290 291 290 290 290 290 289 288 288 287 287 288 287 287 286 286 285 285 285 285 286 286 286 285 286 287 285 286 286 286 285 285 284 285 284 285 285 285 284 284 284 284 285 284 285 285 286 287 286 286 286 287 287 287 286 287 286 286 286 286 286 286 287 288 289 290
293 293 293 293 294 293 293 292 293 292 292 292 291 290 290 290 289 289 291 290 289 289 289 289 289 289 288 287 287 287 287 286 286 285 285 285 285 285 285 285 284 286 285 284 284 284 283 283 283 283 283 284 284 284 284 284 285 285 284 283 283 283 283 284 284 285 285 285 286 286 287 286 286 286 286 287 286 286 286 286 286 286 287 288 289
294 294 294 293 293 293 293 293 292 291 290 290 290 290 289 290 289 288 288 290 289 289 288 288 288 288 287 286 286 286 286 285 285 285 285 285 285 284 285 285 283 283 282 283 282 282 283 283 284 283 284 284 284 284 284 283 284 284 284 283 285 284 285 284 284 285 285 285 285 286 286 286 286 286 286 287 287 286 286 286 286 286 287 288 288
294 294 294 294 294 293 292 291 290 291 290 290 289 290 290 290 289 288 288 289 289 288 288 287 287 287 287 286 285 285 285 285 284 284 284 284 284 284 283 282 281 283 282 283 283 283 283 282 282 282 283 282 282 283 283 283 283 284 284 284 284 285 285 284 284 285 284 285 285 285 285 286 286 286 286 287 286 286 287 286 287 286 286 287 287
294 294 294 294 294 293 292 291 291 290 290 289 289 288 288 287 287 287 288 288 287 288 287 287 287 287 286 285 285 284 284 284 284 284 284 284 283 281 281 281 281 281 283 282 282 282 282 282 282 282 283 283 284 285 285 284 285 285 284 285 285 284 284 284 284 283 283 284 284 284 284 285 285 286 287 288 288 289 288 287 287 287 286 286 287
294 294 295 295 294 293 292 292 291 291 290 290 289 289 288 288 288 287 288 286 287 287 287 286 286 286 285 284 285 284 284 284 284 283 282 281 281 281 281 280 281 280 280 281 281 281 281 281 282 282 282 283 284 284 285 288 290 287 285 285 284 284 283 283 283 283 283 283 283 283 284 285 286 286 286 287 289 289 289 289 288 287 287 287 287
295 295 295 295 294 293 292 291 291 290 290 290 290 289 288 287 287 287 287 286 286 286 286 286 285 284 284 284 284 284 283 283 281 281 280 280 281 280 280 280 280 280 280 280 280 280 280 280 281 281 282 283 284 284 287 290 290 291 288 284 283 283 283 282 282 282 282 283 283 283 283 284 284 285 285 287 288 289 289 289 290 290 289 288 287
295 295 295 294 293 293 292 292 291 290 290 290 289 288 288 288 287 287 287 286 286 286 285 285 284 284 284 284 283 283 282 281 281 280 280 280 279 278 279 279 279 279 279 279 279 280 280 279 280 280 280 282 282 285 288 289 290 290 290 286 284 283 283 283 282 282 282 282 282 283 283 284 284 284 284 285 286 287 288 289 289 289 289 290 290
296 295 295 295 294 294 293 292 291 290 290 290 290 289 288 288 287 287 286 286 285 285 285 285 284 284 283 283 282 282 281 281 280 279 279 279 277 277 276 277 277 279 279 279 279 279 279 279 279 279 280 281 280 285 287 289 290 290 290 288 284 283 283 282 282 282 282 282 282 282 282 283 284 284 284 284 284 284 286 287 288 288 288 289 289
296 296 296 295 295 294 293 292 291 291 291 290 289 289 288 287 287 286 286 286 285 285 284 284 283 283 283 282 282 281 281 280 279 279 278 278 276 278 277 277 277 278 278 278 277 278 279 279 279 279 279 280 280 283 287 288 288 289 289 289 284 283 282 282 282 282 282 281 282 282 282 282 283 283 283 283 283 284 284 285 285 285 285 286 288
295 295 295 295 294 293 291 291 291 291 289 288 287 287 287 286 286 286 286 285 285 284 283 283 283 282 282 281 281 280 280 279 278 277 276 276 277 276 276 276 276 277 277 278 278 277 279 277 278 276 278 279 280 285 286 287 288 288 289 288 283 282 282 281 282 281 281 281 282 282 282 282 282 283 283 284 284 284 284 285 285 285 285 285 286
296 296 296 295 293 293 292 292 290 289 288 288 287 287 287 286 286 286 285 285 284 284 283 282 282 282 281 280 280 279 279 278 278 276 275 275 275 275 275 276 276 276 276 276 276 276 277 277 277 276 277 278 279 284 285 286 287 287 288 284 282 281 281 281 281 281 281 282 282 282 281 282 282 282 284 286 287 286 285 285 285 285 285 285 285
297 297 297 296 295 293 291 289 288 289 288 288 287 287 286 286 285 285 284 284 283 283 282 282 281 281 280 279 279 278 277 276 276 275 273 274 274 274 275 275 275 275 275 275 275 275 276 276 275 275 276 277 277 281 284 285 286 287 286 282 282 281 281 281 281 281 282 282 282 282 282 282 282 282 285 287 288 287 285 285 285 284 285 285 285
291 291 292 292 291 290 289 289 288 288 288 287 286 286 286 286 285 284 283 283 282 282 281 281 280 279 279 278 278 277 275 274 273 273 274 274 274 273 273 274 274 275 274 275 275 275 274 274 274 274 275 276 277 280 283 284 285 286 286 282 281 280 280 280 280 281 281 281 282 283 283 282 282 282 286 287 288 287 285 284 284 283 283 283 284
293 294 292 291 290 289 288 288 288 287 286 286 286 286 285 285 284 284 283 282 281 280 280 279 279 278 277 277 276 276 275 273 272 272 273 272 272 273 274 273 273 272 274 274 275 274 274 273 273 274 278 277 276 278 282 284 284 285 284 281 281 280 279 279 280 280 281 281 282 282 283 284 284 285 287 288 288 286 284 284 283 283 282 282 284
289 290 292 290 288 287 287 287 287 287 286 286 285 285 284 284 283 283 282 281 280 279 279 278 277 277 277 276 275 274 273 272 271 271 271 272 273 274 273 272 272 272 272 272 272 272 273 274 274 275 275 275 276 276 278 283 283 284 284 282 280 279 278 278 279 280 280 280 281 282 283 285 286 286 285 286 286 286 284 283 283 282 282 282 285
288 288 288 288 288 289 288 288 288 287 286 285 285 284 283 283 282 281 280 279 278 278 277 277 277 276 275 275 274 273 271 271 272 272 273 274 273 272 271 269 270 271 270 271 272 273 273 274 274 274 274 273 274 276 277 281 282 282 283 282 279 278 279 279 279 279 279 279 280 280 281 283 284 284 285 285 286 286 286 284 284 283 283 285 286
284 286 287 287 287 286 285 285 285 285 285 284 284 283 282 282 281 279 278 277 277 277 277 276 275 274 274 273 272 271 271 271 272 272 271 270 270 269 269 269 269 269 270 271 271 272 273 273 273 272 271 274 274 277 276 279 281 281 282 283 280 279 281 280 278 278 279 279 279 280 280 282 284 284 285 285 286 286 286 284 284 286 286 286 285
285 285 284 286 285 284 284 283 283 283 283 283 283 282 281 280 279 276 276 276 276 276 276 275 274 274 273 271 270 271 271 271 270 270 269 268 268 268 268 269 269 269 270 270 271 271 271 272 272 273 271 273 274 275 278 277 279 281 281 282 282 281 282 280 279 278 279 279 280 280 281 282 284 284 285 285 286 286 285 284 285 286 286 286 286
283 284 284 284 283 282 280 279 279 280 281 281 282 281 279 278 275 276 275 275 275 275 275 274 274 272 271 270 270 270 269 268 268 268 267 267 267 267 267 268 269 269 269 269 270 270 270 271 271 272 273 273 273 274 276 278 278 280 280 281 282 282 282 280 280 279 280 280 280 280 281 283 284 284 284 285 285 284 283 285 286 286 286 286 284
284 283 282 282 281 279 278 277 276 276 277 278 278 279 277 275 275 275 275 275 274 274 273 272 271 270 269 267 267 267 267 266 266 266 266 267 266 267 267 266 268 268 268 268 268 269 269 269 270 270 271 272 273 274 274 276 278 278 280 280 281 281 281 281 278 279 280 280 281 283 283 283 283 283 284 284 283 283 284 285 285 285 285 284 284
281 281 280 279 278 277 276 275 274 273 275 275 277 278 276 274 275 275 275 274 273 272 271 270 269 268 266 266 266 267 267 266 266 266 266 266 267 267 267 267 267 265 264 266 267 268 268 268 269 270 271 272 273 273 273 274 275 276 278 279 279 280 279 280 279 279 280 281 282 282 282 282 282 281 280 280 281 282 284 284 285 285 284 284 284
281 279 278 277 276 275 274 274 273 271 272 273 273 273 274 274 274 274 273 272 271 270 270 269 268 268 266 266 265 265 265 265 264 265 265 266 266 266 265 266 265 264 264 265 265 267 268 268 269 269 270 271 271 272 272 273 274 276 276 277 277 277 278 279 278 279 279 279 279 279 279 281 281 282 282 282 283 283 283 283 283 284 284 284 284
279 278 277 276 276 275 273 273 272 271 271 271 272 272 273 274 274 273 271 270 270 269 268 267 266 266 266 265 265 270 267 264 264 264 265 265 264 264 264 264 265 264 264 264 265 266 267 268 268 270 270 270 271 271 271 272 274 275 276 276 276 277 277 277 277 277 278 279 278 279 279 279 279 280 280 281 281 282 282 282 282 283 283 284 284
278 277 277 277 276 274 273 272 271 270 270 271 271 272 272 272 271 270 270 269 269 269 268 267 266 266 266 267 264 263 263 263 263 262 264 264 264 263 264 263 265 264 263 265 265 267 267 266 267 269 270 270 271 270 271 276 276 278 276 275 275 275 276 276 277 279 278 277 277 277 277 278 278 278 278 279 280 280 280 281 281 282 283 283 283
278 277 276 276 274 274 272 271 270 270 270 271 270 270 270 270 269 269 269 268 268 268 266 266 266 265 264 264 263 262 263 263 262 262 263 264 269 272 270 267 264 273 275 276 276 269 270 269 269 268 270 271 270 271 276 277 278 278 278 278 278 278 279 277 278 280 278 275 275 275 276 276 276 277 278 278 278 278 279 279 280 282 282 282 282
277 276 275 275 274 272 271 270 269 269 270 270 269 269 268 268 268 269 268 268 268 267 267 266 265 263 264 263 261 262 262 262 262 262 262 263 262 264 271 273 274 273 273 274 275 276 275 275 272 269 269 275 275 276 276 277 277 277 277 278 278 278 278 279 279 276 274 273 273 273 274 275 276 277 276 277 278 278 278 279 279 280 282 281 281
Wind_Speed
6 8 9 9 9 7 7 7 8 7 7 8 9 8 9 10 9 10 9 9 8 8 8 8 8 6 5 7 7 5 5 5 5 5 5 5 5 5 5 5 5 5 4 4 5 5 5 5 5 5 5 4 5 6 6 6 5 5 4 4 6 6 5 4 4 3 5 7 6 7 8 6 9 10 10 9 9 10 8 8 8 8 8 8 9
1 5 5 6 7 7 6 7 7 9 8 9 10 11 9 8 11 10 7 9 9 9 8 8 7 8 8 8 6 5 5 5 5 5 5 5 6 6 5 5 5 5 5 5 5 6 6 5 5 6 6 6 6 5 6 6 6 5 4 5 3 6 4 2 3 1 3 5 6 6 6 7 10 9 9 10 9 7 8 8 8 9 9 9 8
3 5 6 6 8 7 7 7 7 10 10 10 9 8 8 8 9 9 8 9 9 9 8 9 6 6 6 4 6 4 3 5 6 6 7 6 6 6 5 5 5 5 5 6 6 6 5 5 6 6 5 5 5 7 5 5 5 5 5 6 5 2 4 3 4 6 5 2 3 5 6 6 3 3 4 7 7 8 8 9 10 8 10 9 8
7 7 8 6 6 6 6 6 7 6 7 6 7 10 9 8 8 9 10 8 8 9 9 7 7 6 6 6 6 7 6 5 5 3 4 4 5 5 4 5 5 5 6 6 6 6 6 6 5 4 5 5 6 7 7 7 4 4 4 4 2 4 3 4 5 6 6 3 5 3 4 4 11 2 3 6 7 9 8 9 6 8 8 8 6
8 6 4 5 5 7 7 6 3 6 6 7 7 8 8 10 9 10 9 9 8 8 9 7 7 5 6 3 3 2 2 3 4 2 3 4 3 2 5 5 5 5 5 5 5 6 6 6 5 4 5 6 6 5 4 6 5 5 6 5 5 6 8 5 3 5 6 5 5 4 4 1 5 6 8 10 6 3 5 6 6 8 8 8 7
9 9 9 7 6 4 2 3 5 5 5 5 4 5 6 7 7 7 8 8 8 8 9 8 8 8 7 7 6 6 5 3 6 6 3 4 5 3 5 5 5 4 3 3 5 5 5 5 5 6 5 3 3 4 4 4 6 7 6 6 6 9 7 4 3 2 6 6 7 7 7 7 9 7 5 8 0 3 9 6 6 7 6 7 6
1 2 4 5 5 5 4 5 5 5 5 2 1 4 5 7 7 7 8 8 8 8 8 8 8 8 9 8 6 7 6 2 2 3 4 2 2 3 2 3 1 1 1 1 0 2 2 3 3 3 3 3 3 3 4 5 5 4 4 6 8 3 3 5 7 5 1 3 7 9 9 9 7 6 7 8 14 1 3 4 4 7 9 7 7
5 4 4 3 5 7 7 5 4 5 3 1 2 1 5 6 6 6 6 7 7 7 8 8 8 6 6 5 5 5 5 4 1 2 3 5 6 4 4 4 3 4 4 3 4 3 2 2 2 2 2 3 3 3 4 4 4 4 3 3 2 3 3 5 5 5 5 4 3 5 5 5 6 6 6 9 10 14 12 7 9 9 8 9 9
5 5 4 5 5 5 4 3 2 2 2 4 3 1 1 4 5 5 5 6 5 7 8 6 7 7 6 6 5 3 5 5 5 5 5 4 6 4 4 3 3 3 3 3 3 3 3 3 3 3 3 3 3 2 3 3 3 3 4 3 3 4 4 5 5 5 4 6 3 3 2 5 6 6 7 6 7 11 16 12 11 5 7 6 8
3 4 4 3 4 4 4 4 3 2 2 2 1 2 3 4 5 6 5 4 5 5 7 5 5 6 6 5 6 5 6 4 5 5 5 4 5 3 3 4 3 3 3 3 4 4 4 3 2 2 2 3 4 4 3 4 5 5 4 5 5 4 3 3 4 4 5 5 3 4 5 3 2 6 5 5 6 8 12 16 13 15 16 8 5
4 4 4 4 3 4 4 5 3 2 2 3 3 3 3 4 5 6 4 5 5 6 6 5 5 5 6 5 6 5 4 6 5 4 3 4 5 3 4 3 3 4 4 4 4 5 5 5 5 5 5 4 3 3 3 4 5 5 5 5 5 6 5 5 5 4 4 5 6 5 6 7 7 4 7 5 5 6 10 14 13 12 13 18 12
4 4 4 4 4 3 4 4 4 3 3 4 4 3 4 4 6 7 4 4 4 6 7 6 6 5 5 5 5 4 5 5 4 4 4 4 4 4 3 5 4 4 5 6 6 5 5 5 5 5 6 5 6 5 5 3 2 4 5 5 5 4 4 4 5 5 5 5 5 4 5 5 7 9 6 6 7 7 8 11 12 14 16 12 11
4 4 4 4 5 4 4 4 4 4 4 4 5 4 5 5 7 8 5 4 5 5 7 6 7 5 5 6 5 6 7 6 5 5 4 5 4 4 4 4 4 6 5 5 4 4 4 5 5 5 5 4 4 4 4 5 5 3 2 3 3 4 5 5 4 5 6 6 6 5 5 5 5 5 6 6 6 7 8 11 12 9 13 17 14
4 4 4 4 4 4 4 4 4 4 4 5 5 5 5 6 6 9 6 4 5 6 7 8 6 5 6 7 6 6 6 6 5 6 5 4 4 4 4 5 6 4 4 4 2 4 5 3 3 4 3 4 4 4 4 5 5 5 5 5 4 3 4 4 4 5 5 5 5 6 6 6 6 5 6 6 7 8 8 9 11 10 10 13 15
4 4 4 4 4 5 4 4 4 4 4 5 4 5 6 6 7 8 7 5 5 5 6 7 6 6 6 6 6 6 6 6 4 5 5 5 4 6 5 5 6 4 5 3 4 5 4 4 4 4 4 4 4 5 5 5 5 5 5 4 4 5 5 5 4 4 5 5 6 5 6 6 5 6 6 7 7 8 9 10 11 16 18 15 12
4 5 4 4 4 4 4 4 4 4 5 4 5 5 6 6 6 6 6 6 6 7 6 6 6 6 6 6 5 5 6 6 6 5 5 5 5 6 5 5 4 4 4 4 4 4 4 4 4 4 4 4 5 5 5 5 4 5 5 5 5 3 4 4 4 4 4 4 4 5 5 5 6 6 6 7 6 6 7 8 9 10 13 18 17
4 5 5 5 4 4 4 4 4 4 5 5 5 6 7 7 7 7 5 4 6 6 6 6 6 7 5 5 6 6 6 6 6 6 6 6 6 5 6 4 4 4 3 3 4 4 5 4 5 5 5 5 5 5 5 5 5 5 6 5 6 5 4 4 3 5 4 4 4 4 4 5 4 5 5 5 6 6 6 6 6 8 9 13 14
5 4 4 4 5 5 4 4 4 5 5 5 6 5 6 6 7 8 7 8 6 7 7 7 7 7 6 7 6 6 7 6 6 6 6 7 6 5 4 6 5 4 4 4 5 5 5 5 5 5 5 5 5 5 5 5 5 6 5 5 4 4 4 4 3 3 5 4 5 5 4 4 5 5 5 5 5 5 6 6 7 6 7 11 12
5 6 5 5 5 5 5 5 4 4 5 5 6 7 7 6 6 7 8 7 7 7 6 6 6 6 6 6 7 7 7 7 6 7 6 7 6 5 5 4 5 5 6 6 6 5 5 5 5 5 6 6 5 5 5 5 4 5 4 4 4 4 4 5 4 4 4 5 5 6 6 5 5 6 6 6 5 4 5 6 6 6 6 9 11
6 6 5 5 5 5 6 6 6 6 6 5 6 6 8 6 8 8 7 7 8 8 7 8 6 7 7 7 7 7 6 7 6 7 7 6 5 5 5 6 5 4 4 4 5 5 5 5 5 6 5 5 5 5 4 4 4 3 4 4 5 5 6 6 6 5 4 4 5 6 6 5 5 4 5 5 5 5 5 5 5 6 6 7 8
6 6 6 6 6 5 5 5 5 5 5 5 6 7 6 7 7 7 9 9 8 7 8 6 7 7 8 8 7 7 7 6 7 6 8 6 6 5 5 4 5 6 4 5 5 4 4 4 4 4 4 4 4 5 4 4 5 5 5 5 5 5 5 5 4 6 5 4 4 5 7 6 5 5 6 5 5 6 5 5 6 6 7 6 8
7 6 6 6 6 6 5 5 4 6 6 7 6 7 7 7 6 7 8 7 9 8 7 7 6 7 7 8 7 5 6 6 8 7 8 7 6 6 4 5 6 4 4 4 4 4 4 4 4 4 4 4 4 4 5 5 6 7 6 4 4 4 5 5 5 6 6 5 5 6 7 7 5 5 6 6 6 6 5 5 6 6 7 7 6
8 8 7 6 6 6 6 6 6 6 6 6 6 6 7 7 7 6 8 7 6 8 7 7 7 8 7 7 7 7 7 7 9 7 7 6 5 5 4 6 5 4 4 4 4 5 4 4 4 5 5 5 5 5 5 5 6 4 4 5 4 4 4 5 6 6 7 6 6 6 8 7 5 5 6 7 6 6 5 6 7 7 8 8 8
6 6 6 6 6 5 6 7 7 6 6 6 6 6 6 6 6 7 8 8 7 7 7 7 8 8 7 8 7 6 8 7 8 6 7 5 5 4 3 4 4 4 6 5 4 5 5 5 5 6 5 5 5 5 5 4 4 4 4 5 4 4 4 4 5 6 7 6 7 7 8 7 6 7 8 7 7 6 7 7 7 7 8 10 8
8 8 8 7 7 7 7 7 7 7 6 6 7 7 7 7 6 7 7 6 7 6 8 7 8 10 7 8 7 6 8 7 7 6 6 5 4 4 4 5 5 5 4 5 6 5 6 5 6 4 4 4 4 4 4 5 4 4 4 4 4 4 4 5 5 6 7 6 7 7 9 8 7 8 10 8 8 8 8 7 8 8 8 8 8
9 8 8 10 8 6 6 6 6 6 7 7 6 6 6 6 6 5 8 7 7 6 7 8 8 10 8 8 6 6 7 6 6 5 5 4 5 5 5 4 4 5 5 5 4 5 3 4 4 4 4 4 4 4 4 4 5 5 4 4 4 4 4 5 5 6 6 6 7 9 8 8 8 9 11 10 9 10 9 9 9 9 9 8 9
10 9 8 6 7 8 7 6 6 7 6 7 7 7 7 7 6 5 5 7 7 7 7 8 7 8 8 7 6 6 6 5 5 5 4 4 5 5 5 5 4 4 4 4 4 4 4 3 4 4 4 4 4 4 4 4 4 4 4 4 5 5 5 5 5 6 7 7 7 8 9 8 9 9 10 11 11 10 10 10 10 9 9 9 9
6 7 9 11 9 8 8 8 8 8 7 6 5 7 8 8 8 6 6 7 7 8 8 7 8 8 7 6 5 5 5 5 4 4 4 5 5 5 5 4 4 4 3 2 2 3 4 3 3 4 4 4 4 4 4 4 4 4 5 5 5 6 7 7 7 7 7 8 8 8 9 9 10 10 10 11 10 11 10 11 10 7 8 10 10
10 11 10 10 11 10 10 10 9 9 9 9 8 7 5 5 5 6 7 7 7 8 8 8 7 8 6 5 5 4 4 5 5 5 6 5 5 4 3 3 3 3 2 2 2 2 3 4 3 3 4 4 4 5 4 4 6 6 5 6 6 6 7 8 8 8 7 8 8 8 8 9 10 14 17 16 15 14 11 12 13 9 8 9 11
14 13 12 11 10 10 11 11 10 11 11 10 8 8 7 8 7 6 7 6 7 7 9 8 8 7 6 5 6 5 5 5 6 5 4 4 3 3 3 3 4 3 3 3 3 3 3 3 4 5 5 4 5 4 6 11 9 6 6 6 6 7 7 7 8 9 9 7 8 8 10 14 16 17 17 18 19 19 18 15 14 12 12 11 11
11 10 11 11 10 10 10 12 12 11 11 10 9 9 8 7 7 7 7 6 7 8 7 8 7 5 6 5 6 5 5 6 4 4 3 3 3 3 3 4 4 3 3 3 3 3 4 3 4 4 6 6 6 6 10 11 11 13 7 5 6 7 6 7 8 9 10 11 10 9 9 11 12 12 12 16 17 18 18 19 21 20 17 14 13
12 12 11 11 13 14 14 14 13 11 11 10 10 9 9 9 8 8 7 7 7 7 8 7 6 6 5 5 5 5 5 4 4 4 3 3 3 4 4 4 3 3 4 3 3 3 4 4 4 4 5 6 6 8 12 12 12 12 11 8 6 7 7 7 7 9 9 10 11 12 10 8 7 8 10 10 13 16 17 18 19 20 20 21 20
14 13 14 15 17 17 15 12 11 12 12 12 12 12 11 10 9 8 8 8 7 8 8 7 6 6 5 5 5 5 4 4 4 3 3 4 4 4 3 3 3 3 3 3 4 4 4 4 3 4 5 6 6 8 11 12 11 12 13 12 7 6 8 9 9 9 9 10 10 11 12 12 9 10 9 9 11 12 15 18 19 20 21 21 23
12 13 15 14 10 9 10 12 12 12 11 10 9 10 10 8 9 8 9 8 9 7 7 7 6 6 5 5 5 5 4 4 3 4 4 4 3 3 3 3 3 3 3 4 4 4 4 4 4 4 5 6 7 8 11 12 12 14 15 12 6 7 7 8 9 9 9 10 10 11 12 14 13 11 7 7 9 11 12 13 12 12 12 14 17
13 13 12 13 14 11 10 11 12 12 10 10 8 8 9 9 8 9 7 9 7 8 7 7 7 5 5 5 5 4 4 4 4 4 4 3 2 2 3 3 3 3 4 4 5 4 5 4 4 4 4 6 6 11 11 12 13 16 17 11 6 7 8 9 9 8 9 10 11 10 11 13 13 13 10 10 11 11 13 14 14 15 14 13 13
15 17 16 14 15 18 19 16 10 11 10 10 11 10 11 10 7 9 9 8 8 8 7 6 6 5 5 4 5 4 4 4 4 4 3 2 2 2 3 3 3 3 3 3 4 4 5 5 4 4 5 7 6 11 13 13 14 15 18 9 7 8 9 10 11 10 9 9 9 9 10 12 13 14 15 18 16 13 13 15 17 16 16 15 14
16 15 16 16 13 11 10 10 10 11 12 11 11 11 11 11 10 8 9 8 8 8 7 7 6 5 5 4 4 5 4 4 3 3 2 1 2 3 3 3 3 4 4 4 4 4 4 4 4 4 5 7 5 7 13 15 15 17 12 8 8 9 10 11 12 12 10 10 10 9 9 11 13 14 19 22 22 21 14 15 16 17 16 17 17
4 5 6 9 9 9 10 13 12 11 9 9 10 11 12 12 10 9 10 9 8 8 7 7 6 5 5 4 4 5 4 4 3 2 1 1 2 2 3 2 3 4 4 4 4 4 4 4 4 4 4 6 7 6 11 14 17 18 13 9 8 9 11 11 12 12 11 10 12 17 14 11 12 14 21 24 28 21 15 15 16 17 19 18 17
9 13 13 12 12 14 13 12 13 13 11 11 12 12 12 12 11 10 9 10 9 8 8 7 6 5 5 5 5 4 4 4 3 1 1 1 2 3 3 3 4 4 5 5 4 4 4 4 4 4 6 6 7 6 10 15 18 19 14 8 8 8 10 12 12 13 13 12 12 12 15 15 14 17 27 27 28 23 16 16 16 18 18 18 15
5 5 10 12 13 13 12 15 16 16 13 13 12 12 11 12 11 10 10 10 9 7 7 6 6 6 5 5 4 4 4 3 1 1 1 2 2 3 3 3 4 4 4 4 3 3 4 5 4 5 5 5 7 7 6 14 17 18 19 11 8 8 11 13 13 12 13 13 13 13 14 17 25 28 30 32 31 30 22 17 16 16 17 20 14
8 10 11 12 13 16 19 19 14 13 13 12 12 12 12 10 11 10 10 8 7 7 7 7 6 6 5 4 4 4 3 2 0 0 1 2 2 3 4 3 3 3 3 3 4 5 5 6 5 5 5 4 4 7 7 12 15 17 19 16 8 9 9 11 12 14 11 13 14 14 15 23 30 32 31 31 31 31 29 20 16 16 16 21 24
4 7 10 10 9 8 7 7 7 12 12 12 12 12 11 11 10 9 8 6 7 7 7 6 6 5 5 5 4 3 1 0 0 0 1 2 3 3 3 3 2 2 4 6 5 6 7 8 6 4 4 5 4 6 8 11 16 17 17 18 10 8 11 11 13 13 12 12 13 14 14 22 31 31 30 32 33 31 33 22 18 27 32 35 24
10 7 5 10 10 9 9 8 7 8 8 9 11 12 10 9 10 8 7 7 7 7 7 6 6 5 4 4 3 2 0 0 1 1 1 2 3 2 2 1 1 3 5 7 7 7 7 9 9 6 4 5 6 5 10 10 15 18 18 17 18 13 20 13 11 13 14 13 14 14 16 23 31 32 32 33 33 35 29 19 33 35 31 33 28
4 5 9 8 9 8 9 6 6 5 6 6 10 12 10 10 9 6 7 7 7 6 7 7 6 5 4 3 2 1 1 0 0 1 2 3 2 1 1 2 3 5 6 7 6 6 7 8 10 11 9 5 5 7 10 13 12 17 18 19 20 21 21 14 13 12 13 13 13 14 18 32 33 33 34 34 33 32 24 32 32 34 34 30 20
9 8 6 7 12 13 10 8 5 5 4 6 6 12 12 12 8 7 7 8 7 7 7 7 6 5 4 2 1 1 0 0 1 1 2 1 1 1 2 2 4 6 6 5 5 5 6 7 8 9 10 8 6 7 7 10 16 16 20 21 22 24 23 23 15 11 12 14 21 31 32 31 32 33 35 33 27 26 30 31 32 31 29 17 14
6 6 6 7 8 8 10 10 6 3 5 4 6 9 15 10 8 7 7 7 8 8 8 6 6 4 4 3 2 1 0 0 1 1 0 1 1 1 2 4 6 6 4 5 5 5 6 6 7 8 9 10 9 7 9 9 9 12 15 20 24 23 23 23 22 18 24 30 29 29 32 30 27 25 21 17 16 18 25 29 27 25 15 13 12
10 8 10 10 10 10 10 9 9 3 4 5 6 5 6 8 8 8 7 7 8 8 8 6 5 5 3 3 3 2 2 1 1 0 0 0 1 1 4 5 4 4 3 3 4 5 6 6 7 8 10 10 9 8 9 10 10 11 12 14 14 14 19 20 13 11 15 14 20 21 21 26 23 29 28 25 21 21 16 13 12 12 13 13 13
6 8 9 9 10 11 11 10 9 6 5 6 7 7 7 7 7 8 8 8 8 7 8 7 6 4 4 3 3 3 3 2 1 0 1 2 3 3 4 3 1 3 2 4 3 5 6 6 7 9 10 10 10 8 9 11 13 13 13 12 12 10 10 9 11 10 11 14 15 18 20 14 13 13 12 10 10 10 11 12 11 12 13 12 14
9 8 9 11 10 11 10 10 9 6 6 7 7 7 7 7 7 7 8 9 9 7 6 6 5 5 5 3 3 2 2 2 1 2 4 3 2 2 1 3 3 4 3 2 2 3 4 3 4 6 9 11 12 10 10 16 17 21 18 15 13 12 13 13 18 28 20 14 11 13 13 12 11 13 14 12 12 12 14 13 14 11 12 11 11
5 6 7 7 8 11 12 11 8 7 7 8 8 7 6 6 5 6 7 9 9 8 6 6 5 5 4 3 3 2 1 2 3 5 4 4 7 5 2 1 3 4 4 7 6 2 3 4 4 4 5 7 10 13 23 27 26 26 27 27 24 24 23 20 24 31 22 14 10 12 9 12 11 10 10 13 12 14 12 14 14 13 11 10 10
8 9 8 9 9 8 9 9 9 8 8 8 8 7 7 6 6 6 7 8 8 8 7 6 6 5 5 4 3 3 2 4 3 3 3 4 5 6 6 7 5 6 6 6 6 6 10 11 9 5 5 13 16 20 24 25 27 27 29 29 29 28 27 26 26 20 14 13 12 13 13 12 11 11 12 12 13 13 14 13 14 13 11 10 11
Wind_Direction
217 205 193 190 186 180 174 169 174 176 174 174 174 177 175 175 169 181 181 171 168 169 175 175 180 184 195 202 206 195 196 194 199 201 196 201 198 200 199 196 197 202 208 204 213 219 221 231 240 252 246 238 229 229 224 231 230 223 238 221 237 256 266 239 258 228 277 287 276 273 283 264 259 260 257 254 250 251 256 258 255 260 254 254 252
130 190 211 188 182 177 168 170 163 169 189 178 182 187 181 170 178 180 170 175 179 177 177 182 185 189 189 199 187 180 189 194 205 209 203 199 200 202 200 200 202 203 205 207 218 222 225 223 220 227 227 227 229 236 239 233 232 227 227 259 219 232 255 223 242 131 271 256 298 302 288 268 253 245 245 248 250 257 256 249 251 248 253 252 256
165 177 176 183 182 178 169 177 181 184 183 184 185 175 180 176 182 175 178 175 181 176 171 186 187 184 179 185 184 195 210 193 192 204 205 206 203 200 197 196 200 207 205 208 216 225 227 225 225 222 219 220 229 241 245 255 243 242 228 226 252 228 244 238 217 182 254 228 247 303 293 324 298 284 265 267 253 251 247 246 247 250 253 252 254
173 171 172 174 170 172 168 178 186 174 169 181 179 182 184 182 177 177 181 177 177 181 179 180 179 180 184 175 186 184 194 199 204 212 212 211 220 209 200 192 194 200 204 208 215 221 222 228 235 222 229 218 222 236 232 236 227 226 224 234 215 281 257 261 199 191 208 250 301 210 285 316 308 286 304 269 222 237 237 247 248 253 252 257 256
177 188 192 175 172 185 185 185 158 175 186 186 185 185 186 186 178 176 179 180 179 176 179 172 165 169 181 182 167 129 60 114 137 114 180 198 210 194 219 202 208 212 206 209 214 223 228 225 225 231 233 232 221 234 236 228 224 221 216 221 216 232 256 246 255 199 214 208 233 304 307 268 233 286 318 292 250 243 264 254 253 256 254 254 251
175 184 188 191 190 196 208 199 186 201 205 216 198 193 178 180 174 173 175 179 181 178 174 168 175 174 174 168 173 180 176 133 159 174 162 143 186 209 208 203 208 217 215 223 218 223 234 238 238 241 249 258 227 218 228 236 232 227 225 222 243 236 242 270 278 245 215 210 219 225 231 269 296 293 339 309 99 267 269 244 258 258 250 255 240
105 104 148 166 196 182 208 203 203 200 223 245 205 197 185 178 178 172 171 180 181 177 172 165 172 179 182 180 170 173 162 221 214 191 169 201 84 56 48 38 34 129 83 122 227 218 247 273 280 286 286 286 276 274 263 258 265 249 237 226 241 250 202 242 247 266 271 247 225 230 240 250 271 308 289 306 305 259 208 295 251 255 266 257 244
179 180 173 179 173 175 185 205 196 201 212 187 134 134 171 178 172 167 164 168 177 171 169 166 163 166 165 170 165 149 153 171 148 91 63 85 74 61 63 52 47 62 59 56 66 62 46 14 357 353 348 304 311 299 284 281 273 273 276 278 269 224 212 226 250 246 245 261 209 250 268 284 282 276 266 274 291 301 287 250 253 261 254 246 255
181 178 174 160 170 187 170 165 218 183 169 164 161 132 143 149 148 141 141 146 163 162 159 160 148 148 145 142 132 156 141 124 106 89 84 77 81 53 66 52 42 38 61 72 76 74 67 56 37 31 21 0 7 339 324 322 314 314 318 311 277 263 235 244 253 261 260 271 310 262 242 253 256 243 257 239 259 289 291 300 304 266 237 244 259
157 159 153 135 142 141 151 131 112 163 203 183 151 90 103 120 127 128 125 121 138 140 138 132 130 125 123 132 133 134 121 107 89 89 84 71 69 42 29 39 30 27 19 31 30 15 358 356 350 344 357 19 18 357 357 357 356 350 334 317 305 291 279 264 254 269 267 273 265 273 264 293 276 262 255 270 265 250 277 298 298 304 305 286 222
138 142 151 150 148 137 134 134 149 112 112 131 137 118 100 105 114 106 109 102 113 125 120 111 106 119 126 135 139 144 125 114 102 93 95 63 64 28 19 354 15 13 7 4 14 2 3 13 10 358 352 348 349 8 3 2 2 6 2 3 356 343 332 328 315 297 288 284 279 271 266 260 275 312 294 253 231 266 276 284 297 303 300 304 295
153 138 147 127 102 104 115 133 143 149 113 110 122 104 99 107 109 101 72 81 89 112 104 94 90 90 112 123 125 135 123 111 109 107 103 99 82 56 11 40 19 23 29 41 29 28 39 36 31 32 27 20 11 357 359 350 11 4 354 357 346 338 336 337 327 322 311 296 285 283 283 287 273 267 285 285 280 286 298 295 302 306 297 282 294
155 157 148 141 140 144 140 148 133 142 145 129 123 116 111 109 114 108 87 78 93 109 106 97 89 89 104 101 95 88 83 96 102 92 77 83 84 73 65 57 33 44 32 50 24 28 43 37 32 33 23 20 15 17 8 357 359 342 337 342 335 339 343 347 345 334 336 330 322 312 304 299 300 312 302 302 296 296 295 296 293 300 298 302 301
162 157 153 150 148 144 145 147 143 148 150 134 126 121 117 112 113 110 99 87 99 100 106 98 94 96 87 88 89 95 92 87 98 104 89 93 111 106 93 92 80 76 62 46 5 35 36 44 43 35 30 26 26 27 23 15 19 6 0 355 354 340 345 348 341 340 342 338 339 335 334 330 327 328 321 314 315 310 301 297 302 301 294 296 303
142 136 138 140 140 136 134 134 131 129 136 134 130 126 122 121 123 121 113 101 99 103 99 99 95 81 79 77 75 81 98 94 72 88 107 102 95 92 84 73 78 64 63 41 32 39 33 29 31 32 22 25 27 27 25 25 21 21 15 6 355 350 355 357 346 349 343 337 334 330 323 317 325 329 330 326 330 323 321 325 327 319 312 304 296
137 126 118 119 124 117 112 108 106 105 109 118 124 129 125 127 128 126 120 109 97 90 83 85 76 71 68 73 74 85 84 88 88 80 73 82 79 85 78 73 70 71 51 49 34 50 39 34 31 30 25 27 27 26 24 24 18 24 13 11 359 358 5 4 344 354 344 338 336 340 337 325 333 328 327 323 318 315 317 316 317 313 311 309 313
147 135 133 126 106 98 110 113 104 98 95 110 124 127 128 131 130 126 112 100 98 97 99 97 98 96 93 97 98 96 99 103 100 87 85 75 76 69 76 70 62 55 55 50 45 41 43 40 38 27 24 24 24 21 20 20 16 18 16 3 357 345 8 358 344 355 332 330 327 325 312 311 309 313 315 312 307 305 300 297 291 294 301 299 304
155 138 133 126 120 116 108 100 107 109 111 105 107 111 113 117 123 122 119 118 114 110 110 112 110 105 102 96 92 97 99 94 94 95 87 83 70 71 68 64 53 44 49 39 44 39 36 35 40 31 23 28 25 20 20 18 20 16 8 357 342 351 356 344 345 343 325 322 315 314 310 303 296 303 296 297 304 306 308 308 306 304 306 300 298
143 143 135 129 126 123 120 118 113 105 102 107 107 105 103 101 103 109 114 116 115 111 106 98 99 102 103 101 99 93 91 91 91 92 90 91 89 84 79 76 61 43 46 37 34 33 30 31 39 30 27 22 18 20 14 15 18 15 359 349 336 355 358 340 328 350 322 331 319 310 307 297 293 293 291 295 291 288 287 290 286 287 287 284 285
160 152 146 139 133 132 133 130 124 119 113 109 107 103 101 107 106 106 102 102 100 99 103 103 102 105 103 95 88 93 95 100 104 107 98 91 88 81 75 64 56 55 52 47 44 34 26 28 24 35 28 23 20 7 13 8 15 19 2 357 345 4 356 345 328 329 323 314 308 304 297 295 296 295 292 291 288 276 273 280 280 279 270 263 272
164 154 147 139 134 130 126 122 115 106 100 99 105 109 111 106 106 109 114 111 105 108 107 109 109 105 104 103 104 103 102 105 97 89 88 81 74 70 67 75 67 48 49 47 44 33 26 26 31 36 41 29 28 14 12 16 19 7 5 2 351 359 350 326 326 315 314 308 297 291 289 287 288 292 283 285 282 278 277 271 275 278 275 266 278
158 153 146 141 137 134 125 109 107 107 107 106 109 109 106 107 113 113 108 111 119 117 118 118 109 111 109 109 106 102 100 93 89 81 79 76 67 65 66 58 64 41 56 53 47 33 33 28 33 26 30 27 22 20 10 21 15 5 350 356 350 343 336 317 319 308 304 301 296 292 288 286 281 277 281 278 272 278 273 273 268 265 271 266 245
161 154 151 148 145 143 137 132 128 124 123 117 113 112 117 117 115 116 118 120 121 124 122 120 116 112 107 104 102 96 95 90 86 79 79 73 70 64 59 73 64 49 51 60 43 38 27 25 24 18 18 16 11 6 4 13 3 354 335 322 322 327 322 316 316 305 304 304 303 291 287 287 287 286 277 273 273 272 266 262 265 261 264 262 253
150 146 143 147 145 136 131 133 131 131 129 124 121 117 116 117 121 122 122 127 123 123 122 116 111 102 101 98 94 98 90 88 85 85 83 77 76 75 76 74 67 53 41 24 42 29 26 19 14 6 8 1 355 350 342 343 327 324 317 307 308 314 310 304 297 297 299 301 293 298 290 291 295 293 285 282 276 265 265 262 263 257 257 263 256
154 154 153 149 147 151 152 147 143 136 129 127 127 128 126 128 127 126 124 124 120 122 116 112 110 105 98 97 95 93 94 87 89 86 87 85 76 72 58 55 46 41 34 30 17 25 20 9 358 346 339 336 327 322 325 320 315 304 294 285 284 293 300 296 290 288 291 291 292 286 291 297 297 289 287 278 274 273 262 260 260 263 258 259 261
158 153 155 163 164 154 150 148 141 140 139 135 132 131 130 125 127 133 128 122 118 113 112 111 109 105 102 97 98 92 89 91 92 86 84 77 69 58 53 46 50 37 24 27 26 1 8 334 329 323 320 315 313 314 305 300 300 302 296 283 274 280 281 282 286 286 288 291 292 292 290 289 287 280 279 279 274 271 271 265 262 263 263 260 261
166 164 161 151 161 163 153 146 145 145 144 144 142 139 134 130 124 123 120 119 123 115 112 107 105 103 102 96 93 91 90 89 87 85 75 65 60 54 48 37 24 47 40 13 2 349 319 322 311 320 313 305 304 298 292 289 289 288 286 289 294 293 292 292 288 290 290 288 282 280 282 277 273 270 273 276 280 279 274 269 265 265 267 268 265
155 163 171 173 165 157 158 155 150 151 148 143 141 141 143 142 136 132 125 120 120 115 111 107 106 100 98 98 96 94 88 86 80 73 66 59 48 39 33 24 36 26 14 358 334 309 294 305 297 301 294 295 295 298 294 289 288 293 298 294 294 300 301 298 294 289 284 278 275 272 269 269 265 267 268 273 273 277 278 280 272 257 264 271 272
177 184 178 171 172 169 162 162 159 153 151 150 145 140 131 122 123 127 123 125 127 118 113 111 106 105 108 107 98 89 82 76 68 61 52 43 35 26 21 20 27 17 360 327 294 294 316 320 312 304 307 310 309 302 299 306 313 310 305 306 304 300 296 294 288 280 273 271 273 267 263 263 264 264 264 266 268 268 276 282 282 277 267 265 273
189 187 183 178 172 167 167 164 163 162 158 154 149 148 149 144 141 135 127 137 122 120 118 114 112 116 115 107 101 94 88 76 63 57 49 39 31 16 15 13 10 4 338 313 315 321 336 324 325 322 319 314 305 295 298 303 304 299 301 296 293 286 285 283 287 291 288 275 270 276 276 270 270 272 273 273 273 272 267 262 271 280 279 276 273
195 182 181 178 171 172 170 171 172 168 162 154 154 153 148 144 144 141 137 138 125 121 116 121 120 121 116 109 104 102 94 86 83 64 48 35 18 13 18 11 1 345 321 315 324 332 326 322 316 314 316 315 310 306 303 301 300 304 302 297 288 290 284 283 286 291 297 301 296 282 275 278 278 277 274 272 273 273 273 273 270 268 265 266 276
195 187 178 179 180 180 181 178 173 167 162 159 158 157 154 156 153 145 140 131 123 123 124 121 120 116 109 107 107 102 95 97 87 71 57 34 25 24 14 358 338 327 311 319 333 319 319 318 318 311 300 293 293 289 293 294 297 303 316 311 304 300 300 295 290 291 294 297 298 298 294 286 273 271 280 285 283 282 281 277 275 274 272 267 259
194 186 188 189 189 187 181 171 166 169 169 173 161 157 164 158 148 150 134 128 128 127 125 120 119 115 113 110 106 104 104 94 82 71 58 40 33 18 356 340 316 297 310 329 319 327 312 310 298 292 289 288 287 285 293 299 306 319 320 320 306 298 299 297 296 294 292 293 295 299 302 299 294 287 287 289 290 291 288 283 279 278 275 272 276
198 194 193 193 183 178 178 176 173 172 169 161 166 156 150 148 142 139 134 133 131 128 124 125 120 119 120 116 113 109 103 90 73 59 51 39 27 353 316 301 301 319 332 322 320 313 300 295 286 281 284 285 293 294 307 313 316 320 319 321 307 303 297 290 292 293 293 294 294 297 301 302 306 307 296 286 287 291 294 293 291 285 280 274 271
195 195 193 188 183 173 165 169 174 170 159 147 147 148 142 141 144 136 138 134 133 129 125 128 125 128 122 117 115 111 99 82 66 58 51 36 10 337 328 312 312 310 318 313 309 310 297 290 289 281 282 292 293 309 318 322 325 325 325 328 311 303 299 296 295 293 290 290 293 293 293 295 300 304 305 303 300 299 297 296 295 294 290 287 282
200 197 192 178 176 179 179 177 157 151 157 159 154 153 145 146 143 139 138 136 134 130 130 129 128 129 127 126 118 111 97 82 69 58 56 20 349 323 307 308 315 316 311 301 295 280 281 296 298 305 313 315 321 327 326 328 331 331 331 328 321 314 312 308 305 305 300 294 293 294 297 299 300 300 305 304 301 300 296 295 296 295 296 295 289
204 193 189 185 177 165 157 143 151 156 156 159 154 150 145 141 142 145 137 137 134 135 138 136 135 130 125 123 117 111 96 81 78 68 45 357 333 317 313 311 330 308 299 289 275 277 278 293 309 318 323 316 326 333 331 331 334 335 332 328 326 322 316 314 310 310 309 306 301 299 297 298 300 299 304 306 304 306 300 298 294 295 295 295 295
148 126 129 140 146 138 141 149 150 156 156 148 152 151 148 146 147 146 141 140 140 143 142 137 135 131 122 118 112 106 100 83 78 78 33 322 307 303 281 288 293 296 295 277 279 286 289 291 304 317 312 314 320 335 335 333 336 338 336 330 325 323 315 313 312 310 310 305 300 300 299 297 298 298 304 305 309 310 303 300 298 297 298 296 294
169 162 157 156 157 154 150 146 149 156 165 160 157 154 149 149 150 149 145 144 148 147 144 140 136 127 117 110 107 97 92 86 76 53 11 298 290 275 276 292 277 266 269 280 289 299 309 313 314 315 318 321 317 333 344 339 338 339 339 332 328 323 316 313 313 312 311 309 306 306 305 304 304 305 310 312 312 313 309 306 305 300 294 292 294
141 151 155 147 135 130 148 160 168 170 158 158 155 155 154 151 153 148 148 152 152 146 133 122 119 115 110 99 96 89 79 88 84 10 321 280 270 294 290 273 275 260 271 287 287 306 329 330 329 333 337 337 329 331 344 340 339 338 338 334 327 327 321 315 313 311 314 313 313 312 313 315 318 317 314 312 309 309 306 300 296 292 293 291 296
151 147 138 145 159 163 169 172 168 155 155 157 157 153 156 155 149 149 153 148 138 127 121 119 115 109 103 97 83 89 83 66 108 195 267 287 291 280 282 277 276 283 289 317 351 350 343 337 340 334 330 334 327 324 329 338 340 338 335 335 325 321 314 310 311 313 314 315 314 315 313 314 313 312 311 310 309 307 306 302 297 291 290 293 294
81 128 142 143 147 143 134 134 147 154 154 158 157 155 151 150 148 148 143 132 125 120 117 115 112 107 106 101 95 69 91 138 292 24 315 296 285 269 268 276 287 321 1 5 355 357 347 334 335 335 335 333 333 335 329 333 336 336 333 332 329 320 324 323 319 311 310 306 306 305 305 307 310 311 310 309 308 308 308 305 297 298 295 298 295
136 133 148 144 141 145 146 141 140 147 152 157 152 148 147 145 142 142 132 125 117 118 115 114 111 111 108 102 97 111 95 142 249 261 199 256 263 262 279 273 352 14 24 13 3 352 348 337 331 339 360 348 340 338 336 331 330 332 333 334 334 332 331 326 314 307 308 304 302 300 298 303 309 311 311 310 310 309 309 302 302 303 298 293 290
121 135 144 141 129 128 127 119 121 129 143 150 152 145 143 139 141 138 125 118 117 117 118 115 118 114 107 114 117 126 216 244 224 264 243 234 271 264 297 23 25 31 26 12 358 349 345 347 342 332 338 353 345 334 331 331 327 331 335 335 333 331 330 323 317 305 303 300 302 304 306 310 312 311 310 310 310 309 304 303 298 295 294 294 296
149 148 140 139 145 142 133 120 109 112 125 139 147 143 139 143 151 140 139 134 129 125 123 124 124 125 125 141 114 170 163 8 274 216 229 244 276 286 12 356 39 31 31 16 344 349 348 336 332 328 324 330 337 329 322 329 333 332 333 332 332 332 330 328 319 306 302 301 306 309 310 311 311 310 310 310 308 303 300 298 296 294 295 296 294
118 122 127 122 116 120 129 130 105 86 106 121 138 151 149 156 143 140 135 132 128 126 127 129 129 131 155 159 145 143 130 236 275 260 246 256 340 356 30 24 40 30 20 2 340 347 342 338 327 320 320 322 330 331 328 329 333 330 330 331 331 329 326 325 321 310 309 311 312 313 313 312 310 308 308 304 303 299 295 295 296 297 299 295 291
152 149 131 131 136 138 145 144 142 121 116 113 119 104 118 134 141 135 132 130 127 128 130 132 142 154 161 144 136 150 188 236 242 253 261 311 6 23 41 35 34 20 356 347 345 341 339 337 329 321 320 323 329 335 334 333 334 330 328 328 328 327 328 325 318 309 314 311 314 315 311 310 306 305 304 301 294 293 294 297 301 301 299 296 295
143 146 143 141 151 153 155 155 153 151 132 124 119 126 133 133 133 133 134 130 131 137 139 144 155 153 142 136 153 164 170 207 219 188 48 17 15 46 46 15 350 308 321 330 339 336 334 333 327 323 322 325 329 338 340 338 335 333 331 329 330 327 328 327 322 317 312 313 311 309 309 306 300 300 301 298 300 298 299 304 302 302 298 294 290
155 161 161 162 162 158 161 156 152 150 139 132 129 129 135 137 137 139 139 135 137 136 137 145 148 128 137 141 165 180 186 176 112 47 37 26 6 355 351 306 263 205 203 225 297 320 307 286 304 322 331 328 328 333 335 329 326 326 326 327 330 333 331 326 323 323 320 316 313 312 313 310 313 316 315 315 315 317 315 310 303 299 298 297 296
159 151 157 153 160 160 159 158 154 154 151 145 141 138 135 131 135 139 138 140 141 140 142 146 138 136 159 160 168 176 156 86 72 62 46 20 8 13 357 331 289 316 343 347 355 331 314 340 353 333 336 334 324 318 322 327 327 327 326 326 324 324 325 322 322 324 324 317 313 308 304 310 309 306 314 318 317 318 316 315 314 306 299 300 305
158 154 165 164 162 158 154 155 161 159 159 153 147 144 141 143 144 147 146 147 145 142 142 143 144 161 167 167 164 136 105 73 70 89 92 69 28 5 15 22 24 15 350 345 350 17 18 4 354 335 330 329 322 322 326 328 329 329 328 327 328 328 329 328 328 327 326 322 317 313 312 308 307 314 317 312 311 314 318 315 311 310 311 313 314